This demonstration page uses our WeatherBlox Daily Observations layout. Learn more.

Left ArrowRight Arrow

Hourly Observations for September 2, 2022

Temp ( °F °C ) Dew Point ( °F °C ) Humidity (%) Winds ( mph kmh ) Pressure ( in mb ) Visibility ( mi km ) Precip ( " mm )
12:53 am 00:53 Clear 64 17.8 62 16.7 93 93 Calm 30.08 1019 8 13 0.00 0.00
1:53 am 01:53 Clear 63 17.2 61 16.1 93 93 Calm 30.08 1019 8 13 0.00 0.00
2:53 am 02:53 Clear 63 17.2 61 16.1 93 93 Calm 30.07 1018 8 13 0.00 0.00
3:53 am 03:53 Clear with Mist and Fog 62 16.7 61 16.1 96 96 Calm 30.08 1019 6 10 0.00 0.00
4:53 am 04:53 Clear with Mist and Fog 62 16.7 60 15.6 93 93 Calm 30.08 1019 5 8 0.00 0.00
5:21 am 05:21 Clear with Mist and Fog 61 16.1 59 15 93 93 Calm 30.09 1019 2 3 0.00 0.00
5:31 am 05:31 Clear with Mist and Fog 62 16.7 60 15.6 93 93 Calm 30.09 1019 5 8 0.00 0.00
5:53 am 05:53 Clear with Mist and Fog 61 16.1 60 15.6 97 97 Calm 30.09 1019 5 8 0.00 0.00
6:12 am 06:12 Clear with Mist and Fog 61 16.1 59 15 93 93 Calm 30.09 1019 2 3 0.00 0.00
6:20 am 06:20 Clear with Mist and Fog 60 15.6 59 15 96 96 Calm 30.10 1019 3 5 0.00 0.00
6:53 am 06:53 Clear with Mist and Fog 61 16.1 59 15 93 93 Calm 30.10 1019 6 10 0.00 0.00
7:53 am 07:53 Sunny with Mist and Fog 62 16.7 61 16.1 96 96 Calm 30.11 1020 6 10 0.00 0.00
8:53 am 08:53 Sunny 71 21.7 64 17.8 79 79 Calm 30.12 1020 10 16 0.00 0.00
9:53 am 09:53 Sunny 76 24.4 63 17.2 64 64 ESE 3 6 30.11 1020 10 16 0.00 0.00
10:53 am 10:53 Sunny 80 26.7 63 17.2 56 56 VRB 6 9 30.11 1020 10 16 0.00 0.00
11:53 am 11:53 Sunny 81 27.2 60 15.6 49 49 Calm 30.11 1020 10 16 0.00 0.00
12:53 pm 12:53 Sunny 82 27.8 62 16.7 51 51 VRB 3 6 30.10 1019 10 16 0.00 0.00
1:53 pm 13:53 Sunny 85 29.4 63 17.2 48 48 ESE 6 9 30.09 1019 10 16 0.00 0.00
2:53 pm 14:53 Sunny 87 30.6 63 17.2 45 45 VRB 6 9 30.08 1019 10 16 0.00 0.00
3:53 pm 15:53 Sunny 87 30.6 63 17.2 45 45 VRB 3 6 30.07 1018 10 16 0.00 0.00
4:53 pm 16:53 Sunny 88 31.1 64 17.8 45 45 VRB 3 6 30.06 1018 10 16 0.00 0.00
5:53 pm 17:53 Sunny 84 28.9 66 18.9 55 55 Calm 30.06 1018 10 16 0.00 0.00
6:53 pm 18:53 Partly Cloudy 83 28.3 65 18.3 55 55 SSE 5 7 30.07 1018 10 16 0.00 0.00
7:53 pm 19:53 Sunny 80 26.7 66 18.9 62 62 S 3 6 30.06 1018 10 16 0.00 0.00
8:53 pm 20:53 Clear 76 24.4 67 19.4 74 74 Calm 30.06 1018 10 16 0.00 0.00
9:53 pm 21:53 Clear 79 26.1 67 19.4 67 67 VRB 3 6 30.08 1019 10 16 0.00 0.00
10:53 pm 22:53 Clear 77 25 68 20 74 74 Calm 30.09 1019 10 16 0.00 0.00
11:53 pm 23:53 Clear 75 23.9 69 20.6 82 82 Calm 30.09 1019 10 16 0.00 0.00

Powered by AerisWeather